#timestamp,LO_Frequency,Hit,StdDev 
1569362415.3,286046996.9,N
1569362435.1,286046999.6,N
1569362455.9,286046999.1,N
1569362475.7,286046998.9,N
1569362495.6,286046997.1,N
1569362515.4,286046996.7,N
1569362535.2,286046998.0,N
1569362555.1,286046997.3,N
1569362556.0,286046997.3,N
1569362575.8,286046995.3,N
1569362595.6,286046998.0,N
1569362615.5,286046997.9,N
1569362635.3,286046997.9,N
1569362655.2,286046995.9,N
1569362675.9,286046995.4,N
1569362695.7,286046995.8,N
1569362715.6,286046996.1,N
1569362735.4,286046996.2,N
1569362755.3,286046993.3,Y
1569362775.1,286046995.4,P
1569362776.0,286046995.4,P
1569362795.8,286046995.4,P
1569362815.7,286046995.2,Y
1569362835.5,286047000.0,P
1569362855.4,286046999.9,N
1569362875.2,286046999.7,N
1569362895.0,286047000.7,N
1569362895.9,286047000.7,N
1569362915.8,286046998.9,N
1569362935.6,286046999.4,N
1569362955.4,286046999.3,N
1569362975.3,286046996.9,N
1569362995.1,286046996.7,N
1569363015.9,286046995.7,N
1569363035.7,286046995.3,N
1569363055.5,286046997.3,N
1569363075.4,286046997.9,N
1569363095.2,286046997.4,N
1569363115.0,286046997.8,N
1569363115.9,286046997.8,N
1569363135.8,286046998.0,N
1569363155.6,286046998.0,N
1569363175.5,286046997.3,N
1569363195.3,286046997.1,N
1569363215.1,286046996.5,N
1569363235.9,286046996.8,N
1569363255.7,286046997.2,N
1569363275.6,286046997.8,N
1569363295.4,286046999.1,N
1569363315.2,286046996.9,N
1569363335.1,286046996.6,N
1569363336.0,286046996.6,N
1569363355.8,286046999.6,N
1569363375.7,286046997.3,N
1569363395.5,286046993.7,Y
1569363415.3,286046997.1,P
1569363435.2,286046998.1,P
1569363455.0,286047000.2,N
1569363455.9,286047000.2,N
1569363475.8,286047001.3,N
1569363495.6,286047000.2,N
1569363515.4,286047000.7,N
1569363535.3,286046998.6,N
1569363555.1,286046999.6,N
1569363575.8,286046999.2,N
1569363595.7,286046997.1,N
1569363615.5,286046999.3,N
1569363635.4,286046999.6,N
1569363655.2,286046996.8,N
1569363675.0,286046996.7,N
1569363675.9,286046996.7,N
1569363695.8,286046999.3,N
1569363715.6,286046998.7,N
1569363735.4,286046998.8,N
1569363755.3,286046998.2,N
1569363775.1,286047000.6,N
1569363795.9,286047000.8,N
1569363815.7,286047000.7,N
1569363835.5,286047002.1,N
1569363855.4,286047001.9,N
1569363875.2,286047000.2,N
1569363895.1,286047001.8,N
1569363896.0,286047001.8,N
1569363915.8,286047003.4,N
1569363935.6,286047005.9,Y
1569363955.5,286047003.2,P
1569363975.3,286047003.3,N
1569363995.1,286047003.9,N
1569364015.9,286047004.0,N
1569364035.7,286047001.6,N
1569364055.6,286047002.3,N
1569364075.4,286047000.5,N
1569364095.2,286046998.2,N
1569364115.1,286046999.3,N
1569364116.0,286046999.3,N
1569364135.8,286046999.2,N
1569364155.6,286047001.0,N
1569364175.5,286046999.8,N
1569364195.3,286047000.0,N
1569364215.2,286047000.5,N
1569364235.9,286046998.2,N
1569364255.7,286046998.4,N
1569364275.6,286047000.5,N
1569364295.4,286046999.8,N
1569364315.3,286046999.9,N
1569364335.1,286047004.4,N
1569364336.0,286047004.4,N
1569364355.8,286047001.5,N
1569364375.7,286047004.0,N
1569364395.5,286047001.3,N
1569364415.3,286047001.5,N
1569364435.2,286047000.0,N
1569364455.0,286047002.8,N
1569364455.9,286047002.8,N
1569364475.8,286047002.6,N
1569364495.1,286047001.8,N
1569364496.0,286047001.8,N
1569364515.8,286047001.7,N
1569364535.7,286047001.9,N
1569364555.5,286046999.7,N
1569364575.3,286047000.0,N
1569364595.2,286047001.0,N
1569364615.0,286047000.6,N
1569364615.9,286047000.6,N
1569364635.8,286047002.8,N
1569364655.6,286047000.4,N
1569364675.4,286047000.9,N
1569364695.3,286047000.0,N
1569364715.1,286046998.9,N
1569364735.9,286047000.9,N
1569364755.7,286047000.6,N
1569364775.5,286047002.2,N
1569364795.4,286047002.2,N
1569364815.2,286047000.9,N
1569364835.0,286047002.8,N
1569364835.9,286047002.8,N
1569364855.8,286047001.9,N
1569364875.6,286047003.4,N
1569364895.5,286047003.0,N
1569364915.3,286047005.9,Y
1569364935.1,286047002.3,P
1569364955.9,286047000.3,N
1569364975.7,286047002.5,P
1569364995.6,286047001.9,N
1569365015.4,286047002.0,N
1569365035.2,286047003.1,Y
1569365055.1,286047000.7,P
1569365056.0,286047000.7,N
1569365075.8,286047001.0,N
1569365095.7,286046999.3,N
1569365115.5,286046998.7,N
1569365135.3,286047001.1,N
1569365155.2,286046996.5,Y
1569365175.0,286046996.9,P
1569365175.9,286046996.9,N
1569365195.8,286046999.2,N
1569365215.6,286046998.3,N
1569365235.4,286047000.3,N
1569365255.3,286046998.7,N
1569365275.1,286046996.9,N
1569365295.8,286046996.9,N
1569365315.7,286046996.9,N
1569365335.5,286046999.6,N
1569365355.4,286046996.6,N
1569365375.2,286046997.4,N
1569365395.0,286046999.1,N
1569365395.9,286046999.1,N
1569365415.8,286046998.1,N
1569365435.6,286046999.8,N
1569365455.5,286047002.6,N
1569365475.3,286047001.4,N
1569365495.1,286047004.0,N
1569365515.9,286047002.6,N
1569365535.7,286047000.5,N
1569365555.5,286047000.5,N
1569365575.4,286047001.2,N
1569365595.2,286046998.9,N
1569365615.1,286046999.3,N
1569365616.0,286046999.3,N
1569365635.8,286047000.8,N
1569365655.6,286046998.3,N
1569365675.5,286047001.2,N
1569365695.3,286047000.0,N
1569365715.1,286047000.3,N
1569365735.9,286047000.6,N
1569365755.7,286046998.6,N
1569365775.6,286047000.9,N
1569365795.4,286046998.2,N
1569365815.2,286046998.1,N
1569365835.1,286046998.2,N
1569365836.0,286046998.2,N
1569365855.8,286046998.5,N
1569365875.7,286046998.8,N
1569365895.5,286047001.2,N
1569365915.3,286047000.6,N
1569365935.2,286046999.8,N
1569365955.0,286047000.6,N
1569365955.9,286047000.6,N
1569365975.8,286047001.0,N
1569365995.6,286047000.4,N
